Location: Stillwell
(40.4602°N, 82.0928°W)
Time: 01:18:32
(UTC-04:00)

Cosmos 1980 - Pass Details

Date: 25 May 2018
Orbit: 838 x 849 km, 71.0° (Epoch: 15 October)

Event Time Altitude Azimuth Distance (km) Brightness Sun altitude
Rises 23:46:24 0° 341° (NNW) 3,400 8.2 -24.3°
Reaches altitude 10° 23:48:57 10° 347° (NNW) 2,461 7.1 -24.5°
Maximum altitude 23:54:24 48° 62° (ENE) 1,092 4.2 -24.9°
Enters shadow 23:55:23 43° 92° (E) 1,163 4.2 -25.0°
